IRIDIUM 180 (43922 NORAD) Tracking and Keplerian Element Data

This shows tracking and keplerian element data for the satellite.

Feedback or suggestion? Click here.




ElementValue
Catalog43922
NameIRIDIUM 180
Epoch Orbit425
Epoch Day40.93174354
Epoch Year2019
RAAN35.3068
Inclination86.3958
Eccentricity0.0001167
Argument of Perigee52.8782
Mean Anonmoly307.2521
Mean Motion14.34216652
Decay Rate4.7E-07
L11 43922U 19002A 19040.93174354 .00000047 00000-0 97633-5 0 9996
L22 43922 86.3958 35.3068 0001167 52.8782 307.2521 14.34216652 4258

Live tracking and technical data element details for IRIDIUM 180 (NORAD 43922). IRIDIUM 180 can be tracked NOW for your location showing map with azimuth and elevation plus other details from your city location.

Track the satellite on the map from your city or location and see movement details for azimuth, elevation, latitude, longitude, range, height, and movement on the map or in text.







IsCatalogInMostPopularTable: catalog: 43922, numindb: 35
Update: records affected: 1



GetName: 43922 IRIDIUM 180

Hit Count: updated at: Thu, 21 Feb 2019 11:51:40 GMT